Hourly Weather Roundup
Issued by NWS Central Illinois

Home | Current Version | Previous Version | Text Only | Print | Product List | Glossary On
Versions: 1 2 3 4 5 6 7 8 9 10 11 12 13 14 15 16 17 18 19 20 21 22 23 24 25 26 27 28 29 30 31 32 33 34 35 36 37 38 39 40 41 42 43 44 45 46 47 48 49 50
000
NZUS43 KILX 270810
HWRILX

Area Weather Roundup
National Weather Service Lincoln IL
300 AM CDT SAT MAY 27 2017

NOTE:  "FAIR" indicates few or no clouds below 12,000 feet, with
       no sigificant weather and/or obstructions to visibility.


CITY           SKY/WX    TMP DP  RH WIND       PRES   REMARKS
Bloomington    LGT RAIN  61  61 100 N12       29.85S FOG
Champaign      PTCLDY    63  61  93 N6        29.83S
Danville       FOG       63  63  99 N8        29.80S VSB 1/2
Decatur        CLEAR     65  62  90 NW8       29.85R
Effingham      CLEAR     67  67 100 SW5       29.86R
Flora          PTCLDY    69  67  93 W7        29.84S
Galesburg      FOG       58  58 100 NE7       29.86S VSB 3/4
Jacksonville   CLEAR     60  60  99 CALM      29.86S FOG
Lacon          CLOUDY    59  58  99 N3        29.85F FOG
Lawrenceville  PTCLDY    68  67  96 SW5       29.84R
Litchfield     CLOUDY    68  65  92 NW6       29.85S
$$


CITY           SKY/WX    TMP DP  RH WIND       PRES   REMARKS
Lincoln        CLEAR     63  63 100 CALM      29.85R FOG
Macomb         FOG       57  57  99 CALM      29.88S VSB 1/4
Mattoon        CLEAR     67  67 100 W7        29.83R
Mt Carmel AP   CLOUDY    70  66  89 SW8       29.84R
Olney-Noble AP CLEAR     68  68 100 SW3       29.85R
Paris AP       MOCLDY    65  64  99 SW6       29.83S FOG
Peoria         FOG       59  59 100 N6        29.85F VSB 1/2
Pontiac        CLOUDY    60  60  98 N3        29.86S FOG
Rantoul        CLOUDY    64  64  99 N8        29.83S FOG
Robinson       PTCLDY    66  65  97 SW5       29.84R
Springfield    CLEAR     64  64 100 N5        29.85R FOG
Taylorville    CLEAR     65  65  98 NW5       29.85R
$$

...REGIONAL REPORTS...


CITY           SKY/WX    TMP DP  RH WIND       PRES   REMARKS
Chicago O`Hare PTCLDY    54  51  90 N6        29.86S
Kankakee       CLOUDY    58  57  97 CALM      29.85S FOG
Moline         CLOUDY    59  56  89 E8        29.86F FOG
Mount Sterling CLEAR     59  58  97 CALM      29.87S FOG
Mount Vernon     N/A     67  66  97 CALM      29.84F
Pittsfield     CLEAR     63  62  96 CALM      29.88R
Quincy         CLEAR     61  59  93 NE3       29.87R
Rockford       PTCLDY    52  51  97 NE6       29.90S FOG
$$


CITY           SKY/WX    TMP DP  RH WIND       PRES   REMARKS
Burlington     FOG       59  59 100 CALM      29.86S VSB 1/4
Cedar Rapids   FOG       53  53 100 CALM      29.86S VSB 1/4
Des Moines     MOCLDY    63  60  90 NE3       29.87R
Kirksville     CLOUDY    61  60  97 E5        29.88R
Ottumwa        CLOUDY    58  58 100 S5        29.86R FOG
St Louis       PTCLDY    72  67  84 NW7       29.85F
$$


CITY           SKY/WX    TMP DP  RH WIND       PRES   REMARKS
Terre Haute    CLOUDY    70  65  84 SW6       29.82S
Evansville     MOCLDY    71  67  87 SW7       29.85S
Indianapolis   MOCLDY    66  64  93 SW6       29.81S
Lafayette      MOCLDY    63  63 100 NW5       29.81S FOG
Madison        FOG       49  48  97 CALM      29.87S VSB 1/4
Milwaukee      CLOUDY    53  52  96 CALM      29.88S
$$






USA.gov is the U.S. government's official web portal to all federal, state and local government web resources and services.